Weather History for Roseburg, OR

Change the Weather History Date:

Tuesday, October 30, 2012

  Actual Average Record
Temperature  
Mean Temperature 61 °F 51 °F  
Max Temperature 70 °F 60 °F 75 °F (1993)
Min Temperature 52 °F 43 °F 23 °F (1971)
Degree Days  
Heating Degree Days 4 14  
Month to date heating degree days 234 284  
Since 1 July heating degree days 260 373  
Cooling Degree Days 0 0  
Month to date cooling degree days 3 2  
Year to date cooling degree days 496 478  
Growing Degree Days 12 (Base 50)    
Moisture  
Dew Point 54 °F    
Average Humidity 77    
Maximum Humidity 100    
Minimum Humidity 53    
Precipitation  
Precipitation 0.00 in 0.15 in 1.08 in (1992)
Month to date precipitation 2.01 2.53  
Year to date precipitation 25.35 23.14  
Sea Level Pressure  
Sea Level Pressure 29.92 in    
Wind  
Wind Speed 1 mph (SSE)    
Max Wind Speed 8 mph    
Max Gust Speed 15 mph    
Visibility 9 miles    
Events      
T = Trace of Precipitation, MM = Missing Value Source: NWS Daily Summary

Daily Weather History Graph

Daily Weather History Graph

Search for Another Location

Airport:

Trip Planner

Search our weather history database for the weather conditions in past years. The results will help you decide how hot, cold, wet, or windy it might be!

Date:

Astronomy

Oct. 30, 2012 Rise Set
Actual Time 7:46 AM PDT 6:06 PM PDT
Civil Twilight 7:17 AM PDT 6:36 PM PDT
Nautical Twilight 6:43 AM PDT 7:09 PM PDT
Astronomical Twilight 6:10 AM PDT 7:43 PM PDT
Moon 6:37 PM PDT (10/30) 8:40 AM PDT (10/30)
Length of Visible Light 11h 19m
Length of Day
10h 20m
Full, 99% of the Moon is Illuminated
Oct 30
Full
Nov 6
Last Quarter
Nov 13
New
Nov 20
First Quarter
Nov 28
Full

Hourly Weather History & Observations

Time (PDT) Temp. Dew Point Humidity Pressure Visibility Wind Dir Wind Speed Gust Speed Precip Events Conditions
12:40 AM 59.0 °F 57.2 °F 94% 30.01 in 10.0 mi Calm Calm - N/A   Overcast
12:53 AM 59.0 °F 57.0 °F 93% 30.01 in 10.0 mi Calm Calm - N/A   Overcast
1:06 AM 59.0 °F 57.2 °F 94% 30.00 in 10.0 mi Calm Calm - N/A   Overcast
1:53 AM 57.9 °F 55.9 °F 93% 30.01 in 10.0 mi Calm Calm - N/A   Overcast
2:46 AM 57.2 °F 57.2 °F 100% 30.01 in 8.0 mi Calm Calm - N/A   Overcast
2:53 AM 57.9 °F 57.0 °F 97% 30.01 in 8.0 mi Calm Calm - N/A   Overcast
3:53 AM 57.9 °F 57.0 °F 97% 30.00 in 10.0 mi Calm Calm - N/A   Overcast
4:53 AM 57.9 °F 55.9 °F 93% 29.99 in 10.0 mi Calm Calm - N/A   Overcast
5:53 AM 57.0 °F 55.9 °F 96% 29.97 in 10.0 mi Calm Calm - N/A   Clear
6:36 AM 57.2 °F 55.4 °F 94% 29.96 in 8.0 mi Calm Calm - N/A   Mostly Cloudy
6:53 AM 57.0 °F 55.9 °F 96% 29.96 in 6.0 mi Calm Calm - N/A   Overcast
7:12 AM 57.2 °F 55.4 °F 94% 29.96 in 8.0 mi Calm Calm - N/A   Mostly Cloudy
7:53 AM 57.0 °F 55.0 °F 93% 29.95 in 6.0 mi Calm Calm - N/A   Partly Cloudy
8:53 AM 57.0 °F 54.0 °F 89% 29.95 in 10.0 mi Calm Calm - N/A   Clear
9:53 AM 59.0 °F 54.0 °F 83% 29.94 in 10.0 mi Calm Calm - N/A   Partly Cloudy
10:53 AM 62.1 °F 55.0 °F 78% 29.92 in 10.0 mi SSE 3.5 mph - N/A   Clear
11:53 AM 64.9 °F 53.1 °F 65% 29.93 in 10.0 mi SW 3.5 mph - N/A   Mostly Cloudy
12:53 PM 66.0 °F 53.1 °F 63% 29.90 in 10.0 mi SSE 6.9 mph - N/A   Clear
1:53 PM 68.0 °F 51.1 °F 55% 29.88 in 10.0 mi ESE 5.8 mph - N/A   Clear
2:53 PM 69.1 °F 52.0 °F 54% 29.86 in 10.0 mi SSE 4.6 mph - N/A   Clear
3:53 PM 70.0 °F 51.1 °F 51% 29.85 in 10.0 mi South 3.5 mph - N/A   Clear
5:53 PM 66.9 °F 52.0 °F 59% 29.82 in 10.0 mi Calm Calm - N/A   Scattered Clouds
6:53 PM 62.1 °F 55.0 °F 78% 29.82 in 10.0 mi Calm Calm - N/A   Partly Cloudy
7:53 PM 59.0 °F 52.0 °F 78% 29.81 in 10.0 mi Calm Calm - N/A   Clear
8:53 PM 57.0 °F 52.0 °F 83% 29.81 in 10.0 mi Calm Calm - N/A   Clear
9:53 PM 57.0 °F 52.0 °F 83% 29.81 in 10.0 mi Calm Calm - N/A   Clear
10:53 PM 55.0 °F 50.0 °F 83% 29.80 in 10.0 mi Calm Calm - N/A   Clear
11:53 PM 54.0 °F 50.0 °F 86% 29.79 in 10.0 mi Calm Calm - N/A   Clear